Weather History for MROC - April, 2012

Change the Weather History Date:

Thursday, April 12, 2012

  Actual Average Record
Temperature  
Mean Temperature 74 °F -  
Max Temperature 86 °F 82 °F - ()
Min Temperature 62 °F 65 °F - ()
Cooling Degree Days 9    
Growing Degree Days 24 (Base 50)    
Moisture  
Dew Point 58 °F    
Average Humidity 58    
Maximum Humidity 83    
Minimum Humidity 25    
Precipitation  
Precipitation 0.00 in 0.20 in - ()
Sea Level Pressure  
Sea Level Pressure 30.01 in    
Wind  
Wind Speed 8 mph ()    
Max Wind Speed 15 mph    
Max Gust Speed -    
Visibility 8.6 miles    
Events      
T = Trace of Precipitation, MM = Missing Value Source: Averaged Metar Reports

Daily Weather History Graph

Daily Weather History Graph

Search for Another Location

Airport or City:

Trip Planner

Search our weather history database for the weather conditions in past years. The results will help you decide how hot, cold, wet, or windy it might be!

Date:

Astronomy

Apr. 12, 2012 Rise Set
Actual Time 5:27 AM CST 5:47 PM CST
Civil Twilight 5:06 AM CST 6:08 PM CST
Nautical Twilight 4:41 AM CST 6:33 PM CST
Astronomical Twilight 4:16 AM CST 6:58 PM CST
Moon 11:52 PM CST (4/12) 10:54 AM CST (4/12)
Length of Visible Light 13h 02m
Length of Day
12h 19m
Waning Gibbous, 58% of the Moon is Illuminated
Apr 12
Waning Gibbous
Apr 13
Last Quarter
Apr 21
New
Apr 29
First Quarter
May 5
Full

Hourly Weather History & Observations

Time (CST) Temp. Heat Index Dew Point Humidity Pressure Visibility Wind Dir Wind Speed Gust Speed Precip Events Conditions
12:00 AM 66 °F - 60 °F 76% 29.88 in 12 mi ENE 8.1 mph - -   Partly Cloudy
12:00 AM 66.2 °F - 60.8 °F 83% 30.07 in - ENE 10.4 mph - N/A   Clear
1:00 AM 66.2 °F - 59.0 °F 78% 30.04 in - NE 8.1 mph - N/A   Clear
2:00 AM 66.2 °F - 59.0 °F 78% 30.03 in - NE 11.5 mph - N/A   Clear
3:00 AM 65 °F - 57 °F 69% 29.87 in 12 mi ENE 10.4 mph - -   Partly Cloudy
3:00 AM 64.4 °F - 57.2 °F 77% 30.02 in - ENE 10.4 mph - N/A   Clear
4:00 AM 64.4 °F - 55.4 °F 73% 30.04 in - ENE 6.9 mph - N/A   Clear
5:00 AM 64.4 °F - 53.6 °F 68% 30.04 in - NE 11.5 mph - N/A   Clear
6:00 AM 64 °F - 53 °F 60% 29.90 in 12 mi ENE 11.5 mph - -   Mostly Cloudy
6:00 AM 64.4 °F - 53.6 °F 68% 30.05 in - ENE 11.5 mph - N/A   Clear
7:00 AM 69.8 °F - 53.6 °F 56% 30.07 in - ENE 4.6 mph - N/A   Clear
8:00 AM 77.0 °F - 53.6 °F 44% 30.09 in - ENE 6.9 mph - N/A   Clear
9:00 AM 81 °F - 51 °F 25% 29.92 in 12 mi East 6.9 mph - -   Partly Cloudy
9:00 AM 80.6 °F - 51.8 °F 37% 30.08 in - East 6.9 mph - N/A   Clear
10:00 AM 84.2 °F - 51.8 °F 33% 30.07 in - SE 6.9 mph - N/A   Clear
11:00 AM 84.2 °F - 48.2 °F 29% 30.06 in - SE 5.8 mph - N/A   Clear
12:00 PM 86 °F - 57 °F 27% 29.89 in 12 mi SSE 6.9 mph - -   Scattered Clouds
12:00 PM 86.0 °F 84.9 °F 57.2 °F 37% 30.04 in 6.2 mi SSE 6.9 mph - N/A   Scattered Clouds
1:00 PM 84.2 °F 83.8 °F 59.0 °F 42% 30.01 in 6.2 mi WSW 10.4 mph - N/A   Scattered Clouds
3:00 PM 82 °F - 66 °F 50% 29.81 in 9 mi SW 15.0 mph - -   Haze
3:00 PM 82.4 °F 84.6 °F 66.2 °F 58% 29.98 in 6.2 mi SW 15.0 mph - N/A   Scattered Clouds
4:00 PM 78.8 °F - 66.2 °F 65% 29.99 in 6.2 mi SSW 10.4 mph - N/A   Mostly Cloudy
5:00 PM 77.0 °F - 66.2 °F 69% 30.00 in 6.2 mi South 6.9 mph - N/A   Mostly Cloudy
6:00 PM 75 °F - 61 °F 52% 29.88 in 9 mi South 5.8 mph - -   Mostly Cloudy
6:00 PM 75.2 °F - 60.8 °F 61% 30.03 in 6.2 mi South 5.8 mph - N/A   Mostly Cloudy
7:00 PM 73.4 °F - 60.8 °F 65% 30.05 in 6.2 mi SE 3.5 mph - N/A   Scattered Clouds
8:00 PM 71.6 °F - 60.8 °F 69% 30.07 in 6.2 mi ESE 8.1 mph - N/A   Scattered Clouds
9:00 PM 70 °F - 59 °F 61% 29.95 in 12 mi East 6.9 mph - -   Partly Cloudy
9:00 PM 69.8 °F - 59.0 °F 68% 30.08 in 6.2 mi East 6.9 mph - N/A   Scattered Clouds
10:00 PM 69.8 °F - 55.4 °F 60% 30.09 in - ENE 5.8 mph - N/A   Clear
11:00 PM 68.0 °F - 53.6 °F 60% 30.08 in - East 4.6 mph - N/A   Clear